Temperature
23 23 22 23 28 29 30 31 31 30 30 29 28 28 28 28 28 25 20 20 20 20 19 19 19 19 19 18 18 18 18 18 18 18 18 18 18 18 18 18 18 17 17 17 17 17 18 18 18
22 22 22 26 29 30 30 31 30 30 29 28 27 27 27 26 23 22 20 20 19 19 19 18 19 19 18 18 18 18 18 18 18 18 18 18 18 18 18 17 17 17 17 17 17 17 17 17 18
21 21 25 28 29 30 30 31 30 29 28 28 28 27 27 25 22 21 20 19 19 19 18 19 19 19 18 18 18 18 18 18 18 18 18 18 18 17 17 17 17 17 17 17 17 17 17 17 17
21 23 26 28 29 30 30 31 30 29 28 28 28 27 25 23 22 21 20 19 19 19 18 19 19 19 19 18 18 18 18 18 18 18 18 18 17 17 17 17 17 17 17 17 17 17 17 17 17
22 26 28 29 30 30 30 30 30 30 29 28 28 28 25 22 21 20 20 20 19 19 19 19 20 19 19 19 19 18 18 18 18 18 18 17 17 17 17 17 17 17 17 17 17 17 17 17 17
25 28 28 29 30 30 30 29 29 30 30 29 28 28 26 21 21 21 20 20 20 19 19 19 20 19 19 19 19 18 18 18 18 18 17 17 17 17 17 17 17 17 17 17 17 17 17 17 17
26 28 29 30 30 30 30 29 30 30 30 29 29 28 25 22 21 21 21 20 20 20 19 19 19 19 19 19 19 18 18 18 18 17 17 17 17 17 17 17 17 17 16 17 17 17 17 17 17
26 29 29 30 30 30 30 29 30 30 30 29 28 29 27 23 21 21 21 20 20 20 19 19 18 18 18 18 18 18 18 18 17 17 17 17 17 17 17 16 17 17 17 17 17 17 17 17 17
25 28 29 30 30 30 30 30 30 29 29 28 27 28 27 23 21 21 20 20 20 19 19 19 19 18 18 17 18 18 18 17 17 17 17 17 16 16 16 16 16 17 17 17 17 17 17 17 17
26 28 30 30 30 30 30 30 30 29 29 28 27 26 24 22 21 21 21 20 20 19 19 19 18 18 18 17 18 17 17 17 16 16 16 16 16 16 16 16 16 16 17 17 17 17 17 17 16
27 29 29 29 29 29 30 30 30 30 30 30 28 26 24 22 22 22 22 21 21 20 19 19 18 18 18 18 17 17 17 16 16 16 16 16 16 16 16 16 16 16 16 16 16 16 16 16 16
27 28 28 29 28 28 29 30 30 30 31 30 29 27 24 23 23 23 23 22 21 20 19 19 18 18 18 18 17 17 17 16 17 16 16 16 16 16 16 16 16 16 16 16 16 16 16 16 16
27 28 28 28 28 28 28 29 30 31 30 29 29 27 25 24 24 23 23 22 21 20 19 19 18 18 18 17 17 17 17 17 16 16 16 16 16 16 16 16 15 16 16 16 16 16 16 16 16
28 28 28 28 29 28 29 30 30 30 29 28 28 26 26 25 25 23 22 21 21 20 19 19 18 19 18 18 17 16 16 16 16 16 16 16 16 16 16 15 15 15 15 15 15 15 15 15 15
26 27 28 29 29 29 29 30 30 28 28 28 27 26 26 25 25 24 22 21 20 19 18 18 18 18 18 17 17 16 16 16 16 16 16 16 16 16 15 15 15 15 15 15 15 15 14 14 14
27 27 28 29 29 29 29 30 29 27 27 28 27 27 26 25 25 24 22 20 19 19 18 18 18 18 18 17 17 16 16 16 16 16 15 16 16 16 15 15 14 15 14 14 14 14 14 14 13
27 27 28 29 29 29 30 30 29 26 27 28 27 27 25 25 24 23 22 20 19 18 18 18 18 18 18 17 17 17 17 16 16 16 15 15 15 15 15 14 14 14 13 13 13 13 13 12 12
27 28 28 29 29 28 29 29 28 27 27 28 27 27 25 25 23 22 21 19 18 17 18 18 18 18 18 17 17 17 16 16 16 15 15 15 15 15 14 13 14 13 12 12 12 12 11 11 11
27 26 27 28 28 27 28 28 28 27 27 27 27 27 26 24 22 21 19 18 17 17 17 17 18 18 17 17 17 16 16 15 15 15 15 14 14 14 13 12 13 12 11 11 11 10 10 10 9
25 25 26 27 27 26 27 27 28 27 27 26 26 26 25 24 20 18 17 17 17 17 17 17 17 17 17 16 16 16 15 15 14 14 14 13 13 13 12 12 11 11 10 9 9 9 9 9 8
25 25 26 26 27 26 26 26 28 27 25 25 24 25 25 23 19 17 16 16 16 16 16 16 16 16 16 16 15 15 14 14 13 13 13 13 12 12 12 11 10 9 9 8 7 7 7 7 7
24 26 25 25 25 26 27 26 28 28 26 25 24 24 24 22 20 17 16 15 15 15 15 15 15 15 15 15 14 14 14 13 13 12 12 12 12 11 10 9 8 8 7 7 6 6 6 6 7
25 26 25 25 25 25 26 25 27 28 26 27 26 24 23 22 19 16 15 15 15 15 14 14 14 14 13 13 13 13 13 12 12 12 11 10 9 9 8 7 6 6 6 5 5 4 4 5 5
25 25 24 25 25 24 25 25 26 28 27 28 28 25 22 21 17 15 14 14 14 14 13 13 13 13 13 13 12 12 12 12 12 11 10 9 8 7 6 6 5 5 5 4 4 4 4 4 3
25 24 23 24 24 24 26 25 26 28 28 28 27 25 21 18 16 14 13 13 13 13 13 13 12 12 12 12 12 12 12 11 10 9 8 8 7 7 5 5 5 4 4 4 4 4 3 3 3
24 24 23 23 24 25 26 25 27 28 27 25 25 23 20 17 15 13 13 13 13 13 12 12 12 12 11 11 11 12 11 10 9 8 8 7 6 6 5 4 4 4 4 4 3 4 3 3 2
25 25 25 24 24 23 25 26 27 27 26 26 24 23 20 17 14 13 13 13 13 12 12 11 11 11 11 11 11 11 10 9 8 7 7 6 5 5 5 4 4 4 3 3 3 4 3 3 3
26 26 25 23 22 22 24 25 26 26 27 27 25 23 20 16 14 12 12 12 12 11 11 10 10 10 10 10 10 9 9 8 7 6 5 5 5 4 4 4 4 4 3 3 3 3 3 3 3
24 24 24 24 24 23 23 25 27 26 26 26 25 23 20 16 13 12 11 11 11 10 10 10 9 9 9 9 9 9 8 7 6 5 5 5 4 4 4 4 4 4 4 4 3 3 3 3 3
25 25 24 23 23 24 23 24 26 25 25 24 24 22 19 16 13 12 11 10 10 9 9 9 9 9 9 9 9 8 7 6 5 5 5 4 4 4 4 4 4 4 4 4 3 3 3 3 2
Wind_Speed
12 9 6 5 6 8 7 4 3 6 5 4 3 2 3 5 5 4 7 11 12 13 15 17 16 15 13 12 12 13 14 14 14 13 13 11 10 9 7 6 5 5 6 7 8 8 8 8 7
8 6 6 5 8 9 6 6 7 6 7 8 6 3 2 4 5 8 10 11 13 13 14 15 17 15 14 14 13 13 13 13 13 12 11 10 9 7 6 5 4 4 5 6 7 7 7 6 5
7 7 5 6 8 7 4 7 8 8 9 8 6 3 2 4 6 8 10 13 13 12 12 15 17 16 15 15 15 14 14 13 12 10 9 8 7 6 4 4 4 4 5 5 5 6 6 6 5
6 6 6 9 10 4 1 6 10 12 10 7 7 6 5 5 6 9 14 14 14 12 13 16 16 16 16 16 15 14 13 12 11 10 8 7 6 5 4 4 4 4 5 5 5 6 6 6 5
7 6 9 11 8 3 4 6 12 12 11 9 7 7 7 6 8 13 14 14 13 12 12 16 15 16 16 15 14 13 12 11 10 9 8 7 6 5 4 4 4 4 5 5 6 7 7 6 6
6 6 9 10 7 5 6 9 13 11 11 11 8 8 7 8 11 14 14 13 12 12 12 15 14 14 14 14 13 12 12 11 10 9 8 7 6 4 4 3 4 5 5 6 7 7 7 6 6
9 8 10 6 6 8 7 11 14 12 11 11 9 9 8 10 12 14 14 12 11 11 12 13 15 14 13 12 12 12 11 10 9 8 7 6 5 4 4 4 5 5 6 6 6 6 6 6 6
7 6 9 7 8 8 8 12 13 11 10 9 9 7 8 14 15 15 13 12 11 11 10 11 12 13 14 13 12 11 10 9 8 6 6 5 5 5 4 5 6 5 5 5 6 6 5 5 5
5 8 9 7 6 6 7 12 12 10 9 9 9 3 7 19 18 16 15 13 11 10 10 10 11 10 10 11 13 11 10 8 8 8 6 6 5 4 5 7 6 5 5 5 5 5 4 3 6
7 11 6 2 2 2 5 10 13 13 14 13 11 8 12 20 19 19 18 16 15 13 12 10 10 11 10 9 11 9 9 9 7 5 6 5 2 1 1 8 6 5 5 5 5 3 4 7 4
8 9 2 3 4 6 6 10 14 16 15 16 17 16 18 20 20 19 18 17 15 14 12 11 10 9 9 8 8 7 6 6 6 5 4 3 3 3 3 3 6 4 4 4 4 5 3 3 2
10 9 7 6 5 6 7 10 15 18 16 13 15 18 21 22 22 20 18 17 15 14 13 11 11 9 8 7 7 6 6 5 5 5 4 3 3 2 1 2 1 2 2 1 4 3 3 4 4
14 11 9 9 10 10 10 12 14 17 14 7 13 20 23 23 21 18 16 15 15 14 13 12 11 10 8 6 6 6 5 6 5 4 4 2 3 2 2 1 2 4 3 4 4 5 4 6 6
10 11 11 11 9 6 8 10 12 10 10 11 16 21 23 23 22 19 17 16 15 14 13 12 12 11 10 8 6 6 6 4 4 3 1 1 2 1 2 2 1 2 3 4 4 4 4 5 6
7 10 13 11 9 5 7 10 10 4 8 13 17 19 21 22 21 20 18 15 14 13 12 12 12 11 10 9 7 6 5 5 3 3 3 2 1 1 1 1 1 2 2 2 3 4 5 5 6
10 13 15 11 7 5 9 14 7 2 9 13 15 17 19 21 22 19 17 14 13 12 12 12 10 12 10 8 6 5 5 5 4 4 4 5 5 4 2 1 2 3 3 3 3 5 6 6 7
14 17 19 14 6 6 10 10 6 1 7 11 13 15 18 19 20 18 16 14 12 11 12 12 11 11 11 10 8 8 7 6 6 6 6 7 7 5 4 4 4 3 3 4 5 4 6 7 7
15 17 18 17 8 7 11 10 3 3 7 10 12 14 16 18 18 16 14 13 12 11 11 11 12 12 12 10 9 8 8 7 8 8 8 8 7 7 4 4 5 5 4 4 5 5 4 6 6
10 11 15 14 6 9 12 12 8 5 8 11 13 14 16 17 15 13 12 11 11 11 12 12 13 12 10 8 8 7 7 7 7 8 9 8 7 7 6 4 4 4 4 4 5 5 6 6 5
15 15 16 14 8 9 13 14 12 9 11 11 13 14 15 15 13 11 12 11 12 12 12 12 13 12 10 8 7 6 7 6 7 7 8 7 7 6 5 5 3 3 2 2 3 4 6 7 6
17 17 17 15 12 12 13 19 19 13 12 12 13 15 16 17 17 14 13 12 12 12 12 11 12 12 12 12 9 9 7 6 6 6 5 5 5 5 5 3 3 3 4 4 5 5 6 8 8
16 15 15 15 16 16 13 17 19 15 13 15 16 16 17 17 17 15 14 13 12 12 11 12 12 11 11 11 11 10 7 6 5 4 4 4 4 3 3 4 4 5 5 5 6 5 7 7 8
15 11 13 15 16 18 15 15 17 12 14 17 19 18 16 16 15 14 14 14 13 13 12 12 13 12 11 10 10 9 7 7 6 4 4 1 2 3 4 4 4 4 5 5 6 5 6 7 7
12 9 11 13 14 20 19 18 18 14 14 15 15 16 15 14 13 13 13 14 14 13 13 13 13 12 11 10 9 9 9 7 6 3 2 0 1 1 2 3 4 4 5 4 5 5 6 5 6
12 12 10 11 13 17 15 14 15 12 12 12 10 12 14 14 15 15 16 15 15 15 14 14 14 13 11 10 10 9 8 7 5 2 1 2 2 2 2 4 4 4 4 5 5 6 6 6 6
15 17 13 12 13 12 8 11 9 5 6 8 8 10 15 16 16 17 18 17 17 16 15 14 14 13 11 10 9 8 7 4 4 3 2 1 3 3 2 4 4 5 6 6 6 8 7 7 8
20 19 19 18 19 17 15 14 10 10 13 12 10 12 16 17 17 18 18 18 18 17 15 14 13 12 10 10 9 8 6 5 4 2 1 2 2 3 3 5 6 6 7 8 8 8 9 9 10
18 16 12 15 16 19 19 18 15 11 10 10 12 14 17 18 18 18 18 18 17 16 13 12 12 11 10 9 7 6 6 4 3 1 1 2 3 4 5 6 7 8 8 9 9 11 9 11 12
15 16 14 14 15 17 18 13 5 4 5 7 9 14 17 19 19 18 17 17 17 16 14 12 11 11 10 9 7 6 5 3 1 1 2 3 4 5 7 8 8 9 10 10 10 12 13 13 14
12 16 17 16 17 17 17 16 2 1 4 6 7 10 15 18 18 18 18 18 17 16 14 13 12 11 9 8 7 5 3 1 2 2 3 4 6 7 8 9 10 11 11 11 12 13 14 15 16
Wind_Direction
176 194 227 244 250 240 241 184 168 148 137 117 105 60 23 18 2 54 118 141 143 144 142 148 149 149 147 144 137 129 123 120 118 117 116 116 115 116 115 116 113 109 104 98 91 87 87 87 87
180 199 227 242 253 239 202 174 171 144 120 131 128 110 90 72 61 105 132 140 147 145 149 150 147 149 149 148 144 137 134 131 128 126 124 122 119 117 116 116 110 101 95 90 87 83 81 81 80
194 224 244 243 244 251 160 158 157 135 140 153 140 122 84 82 111 122 129 142 145 145 148 140 151 152 152 152 150 146 144 141 138 135 131 127 123 116 109 108 103 95 87 82 80 80 76 72 67
210 214 232 244 239 235 194 155 153 150 155 162 151 131 104 93 120 126 134 144 145 148 150 145 157 156 157 157 154 151 148 146 143 140 136 133 128 121 111 103 98 91 84 81 83 87 83 75 65
231 235 232 235 230 193 191 170 167 162 157 162 167 139 124 115 116 130 142 147 149 149 149 149 159 158 159 160 157 153 150 145 142 139 138 134 129 120 107 98 94 90 86 84 88 92 84 73 63
217 230 235 221 187 179 184 181 180 169 158 162 169 147 125 131 142 147 148 153 150 150 150 142 155 159 161 161 158 154 148 143 140 139 137 133 127 117 105 91 90 94 94 93 94 90 85 78 70
239 234 242 226 183 179 178 182 186 176 168 168 171 155 136 154 153 153 152 154 152 151 151 152 159 161 163 161 159 153 147 142 138 136 135 132 126 117 105 100 96 96 96 96 97 94 89 83 73
254 250 232 214 196 165 166 184 194 190 175 152 175 173 162 162 158 157 154 157 156 156 155 156 158 159 164 163 159 154 148 143 140 139 140 145 158 152 135 147 103 97 98 101 102 99 97 98 90
244 243 217 190 187 154 166 187 191 195 174 173 189 183 141 152 161 164 163 167 165 162 163 167 160 163 165 159 153 161 156 153 165 167 161 202 202 168 165 85 89 95 98 104 105 103 112 160 147
226 238 200 152 241 224 191 201 184 189 192 190 186 168 149 157 170 175 175 175 173 172 174 171 165 166 169 161 158 171 174 165 193 168 175 197 158 187 92 115 111 109 117 135 124 141 196 239 204
225 241 216 236 273 287 246 212 196 202 205 204 196 180 167 171 180 185 183 180 177 173 173 173 170 175 168 165 168 169 169 160 180 175 182 181 204 193 204 183 163 164 188 195 156 213 230 265 302
235 244 256 272 298 280 256 220 205 212 217 209 198 180 175 182 187 190 186 180 176 175 175 173 168 173 179 169 164 171 171 169 173 160 200 188 204 224 223 248 280 239 219 274 270 259 251 271 270
233 245 254 266 278 278 257 231 216 218 221 206 188 179 184 188 191 191 187 179 177 176 174 173 173 168 171 171 177 176 169 168 156 170 177 222 233 233 229 256 288 288 296 262 267 282 289 284 271
238 246 257 267 270 248 234 214 214 217 213 201 190 189 192 192 191 187 186 181 180 177 175 170 174 170 172 175 176 171 167 159 159 162 135 256 282 291 264 244 284 307 313 327 308 305 291 283 295
250 252 247 240 243 228 229 202 203 190 203 202 199 199 197 195 192 190 186 182 181 178 173 171 172 167 173 174 172 166 155 155 141 115 89 63 42 56 304 330 304 353 344 323 302 302 290 287 287
228 236 238 213 217 218 234 215 159 173 201 206 207 205 202 197 195 191 184 180 180 178 170 170 167 162 161 151 145 138 128 121 113 103 90 74 69 65 45 33 32 10 338 327 322 309 302 300 296
223 230 230 209 195 230 238 228 126 196 214 214 211 208 204 198 200 190 183 178 178 175 168 166 158 153 145 134 124 111 104 100 101 94 87 80 72 67 59 50 39 357 348 342 327 334 318 307 306
230 233 232 231 192 238 238 237 197 235 234 227 218 213 206 202 199 188 182 174 172 169 164 156 146 139 134 126 116 110 104 103 96 88 81 78 73 61 54 67 37 1 354 351 356 334 324 313 309
260 255 245 238 238 257 246 244 238 237 238 234 226 219 212 206 193 181 171 166 165 162 157 152 146 139 136 131 129 125 117 112 102 92 85 79 71 64 46 43 45 11 16 0 339 325 306 292 305
239 243 246 245 236 259 257 252 247 241 242 242 237 227 219 202 180 171 168 167 167 161 154 149 146 142 136 127 118 117 118 110 101 95 85 78 73 63 63 41 19 19 339 318 326 321 312 304 299
233 241 249 254 255 249 263 257 244 233 236 239 239 234 223 207 192 182 177 170 161 155 151 147 142 139 133 132 127 130 127 130 123 112 101 84 82 78 66 53 11 346 310 328 325 313 313 312 305
238 239 251 258 260 260 249 267 255 228 226 233 233 227 221 208 198 186 177 163 153 143 136 136 133 134 135 141 145 150 146 139 127 127 110 107 83 60 43 23 3 341 330 332 309 339 312 302 302
245 256 249 254 260 265 252 258 264 233 241 241 232 225 218 204 192 181 170 152 142 137 134 133 132 132 133 134 135 136 129 124 128 122 109 98 81 39 17 4 352 338 326 337 326 317 307 304 303
238 243 248 250 254 255 252 255 262 240 239 251 236 217 210 194 175 161 148 140 136 134 133 134 132 130 131 130 129 123 120 120 119 114 104 286 11 357 8 342 339 321 331 325 313 308 295 306 312
218 229 239 239 233 250 247 249 262 263 250 255 248 210 196 182 166 156 150 146 143 142 140 140 137 132 131 127 120 118 118 120 119 108 97 322 319 318 4 329 320 319 317 308 306 294 301 293 294
218 228 244 260 262 264 233 244 263 255 258 260 247 210 186 179 171 165 161 156 152 149 147 145 140 135 134 128 122 119 124 116 102 85 12 329 319 330 338 301 299 299 297 296 295 291 285 284 283
239 236 246 259 269 275 269 270 265 249 247 243 228 202 187 180 173 168 164 160 156 153 152 148 141 137 136 131 126 123 113 90 89 103 257 302 303 295 289 292 293 293 291 292 290 287 290 287 283
242 246 243 245 256 262 264 261 260 255 253 238 219 204 190 179 174 170 166 162 158 154 149 146 143 140 137 135 131 121 110 103 98 37 348 308 291 291 292 292 293 292 291 289 288 290 290 290 287
219 229 234 247 252 263 268 267 288 257 285 271 233 207 190 180 174 171 167 162 156 153 150 149 148 144 141 133 126 117 112 109 110 263 276 281 286 289 286 290 293 292 292 292 290 290 294 293 293
241 237 236 246 253 255 266 273 292 248 294 282 252 208 188 177 173 171 165 160 159 158 156 155 154 148 141 134 127 121 123 151 250 267 280 278 278 282 287 289 290 290 290 291 290 292 296 297 297
Height
1535 1535 1536 1538 1531 1521 1513 1508 1507 1509 1511 1515 1517 1518 1518 1519 1522 1530 1534 1534 1537 1539 1540 1540 1542 1545 1547 1548 1550 1552 1554 1555 1556 1557 1558 1559 1560 1561 1562 1563 1564 1565 1566 1566 1567 1567 1567 1568 1568
1535 1536 1538 1535 1525 1518 1511 1506 1509 1509 1513 1518 1520 1522 1522 1525 1529 1531 1533 1535 1537 1540 1541 1542 1543 1545 1547 1549 1551 1552 1554 1555 1556 1558 1558 1559 1560 1561 1563 1564 1565 1565 1566 1566 1567 1567 1567 1567 1568
1535 1536 1537 1526 1519 1512 1507 1506 1508 1513 1518 1519 1520 1523 1525 1528 1531 1533 1534 1535 1538 1540 1542 1542 1544 1545 1547 1549 1551 1553 1554 1556 1557 1558 1559 1560 1561 1562 1563 1564 1565 1565 1566 1566 1567 1567 1567 1567 1567
1536 1537 1533 1524 1515 1507 1506 1506 1510 1514 1518 1520 1520 1524 1527 1530 1532 1533 1534 1536 1539 1541 1543 1543 1544 1546 1548 1550 1552 1553 1555 1556 1557 1558 1559 1560 1561 1562 1563 1564 1565 1565 1566 1566 1566 1566 1567 1567 1567
1535 1531 1523 1517 1510 1507 1508 1509 1511 1512 1515 1519 1521 1522 1528 1531 1532 1533 1535 1538 1541 1543 1544 1544 1545 1547 1549 1551 1552 1554 1555 1556 1557 1559 1559 1560 1561 1562 1563 1564 1565 1565 1566 1566 1566 1566 1566 1566 1566
1532 1525 1519 1512 1507 1507 1509 1511 1511 1510 1514 1518 1521 1522 1528 1531 1532 1535 1537 1540 1542 1544 1545 1544 1546 1548 1550 1551 1553 1554 1555 1556 1558 1559 1560 1560 1561 1562 1563 1564 1564 1564 1565 1565 1565 1565 1565 1565 1565
1527 1518 1511 1506 1506 1507 1507 1510 1510 1510 1513 1517 1520 1522 1528 1531 1533 1535 1538 1541 1543 1545 1546 1547 1547 1548 1550 1551 1553 1555 1556 1557 1558 1559 1560 1561 1561 1562 1563 1563 1563 1563 1564 1564 1564 1564 1564 1564 1564
1524 1516 1509 1506 1506 1505 1507 1510 1510 1511 1512 1517 1521 1521 1525 1530 1532 1535 1538 1541 1543 1545 1547 1549 1550 1551 1551 1552 1553 1554 1556 1557 1558 1559 1560 1561 1561 1562 1562 1563 1562 1563 1563 1563 1563 1563 1563 1563 1563
1525 1517 1507 1503 1504 1503 1506 1507 1509 1512 1514 1519 1521 1522 1524 1528 1531 1534 1537 1539 1542 1544 1546 1549 1550 1551 1553 1554 1553 1554 1555 1556 1558 1559 1559 1561 1563 1563 1563 1562 1562 1562 1562 1562 1562 1562 1563 1563 1563
1521 1511 1502 1505 1505 1504 1505 1505 1507 1511 1513 1517 1520 1523 1525 1526 1529 1532 1535 1538 1540 1543 1545 1548 1549 1550 1553 1554 1553 1555 1557 1557 1559 1560 1560 1562 1562 1562 1562 1561 1561 1562 1562 1562 1562 1562 1563 1564 1565
1515 1507 1504 1507 1507 1507 1505 1504 1505 1506 1507 1510 1514 1520 1523 1525 1528 1531 1534 1536 1539 1542 1544 1547 1548 1550 1553 1554 1555 1556 1557 1557 1559 1559 1560 1560 1561 1562 1563 1563 1563 1562 1562 1563 1563 1563 1564 1564 1564
1512 1509 1508 1507 1507 1507 1505 1502 1502 1502 1502 1505 1510 1516 1520 1523 1526 1529 1532 1535 1538 1541 1543 1545 1546 1548 1551 1553 1554 1555 1557 1557 1559 1558 1559 1561 1561 1562 1562 1563 1563 1563 1564 1563 1564 1564 1564 1563 1563
1511 1508 1508 1507 1506 1504 1504 1501 1500 1499 1501 1505 1509 1513 1517 1521 1525 1529 1532 1535 1537 1539 1541 1543 1545 1546 1548 1550 1553 1555 1556 1557 1558 1558 1559 1559 1561 1562 1562 1562 1561 1563 1563 1563 1563 1563 1562 1562 1562
1506 1507 1506 1505 1503 1502 1501 1498 1499 1497 1501 1504 1508 1511 1514 1518 1523 1527 1530 1533 1535 1537 1539 1541 1543 1544 1546 1548 1551 1553 1555 1555 1557 1557 1558 1558 1560 1560 1560 1560 1560 1560 1560 1560 1560 1560 1559 1559 1559
1510 1508 1503 1500 1500 1499 1498 1497 1496 1499 1501 1503 1506 1509 1512 1516 1520 1524 1528 1531 1534 1536 1538 1539 1541 1543 1545 1548 1550 1552 1553 1554 1555 1555 1556 1556 1557 1557 1558 1558 1558 1558 1557 1556 1557 1556 1556 1555 1555
1506 1505 1502 1494 1497 1497 1498 1494 1495 1499 1500 1501 1503 1506 1509 1513 1518 1522 1526 1529 1532 1534 1535 1537 1540 1541 1543 1546 1548 1550 1552 1552 1553 1553 1554 1554 1554 1555 1555 1556 1556 1554 1555 1554 1554 1553 1553 1552 1551
1501 1500 1497 1491 1495 1494 1493 1488 1495 1498 1499 1499 1501 1503 1507 1511 1516 1520 1524 1526 1529 1531 1533 1535 1538 1540 1542 1544 1546 1548 1549 1550 1551 1551 1551 1551 1552 1552 1553 1553 1552 1552 1552 1551 1550 1549 1548 1547 1545
1495 1493 1492 1491 1491 1494 1492 1490 1495 1497 1498 1497 1499 1501 1505 1508 1512 1516 1520 1522 1524 1527 1530 1532 1535 1537 1540 1542 1544 1546 1547 1548 1548 1548 1549 1549 1549 1549 1550 1549 1548 1549 1548 1547 1545 1543 1542 1541 1539
1493 1496 1494 1489 1491 1496 1493 1491 1491 1495 1496 1495 1496 1497 1501 1505 1509 1512 1515 1517 1520 1523 1525 1528 1531 1534 1537 1540 1542 1544 1544 1545 1545 1546 1546 1546 1546 1546 1547 1546 1545 1544 1543 1541 1540 1539 1538 1536 1534
1498 1501 1497 1493 1494 1497 1492 1491 1488 1492 1493 1493 1493 1495 1497 1501 1504 1506 1509 1513 1515 1518 1521 1524 1527 1530 1533 1537 1540 1541 1542 1542 1543 1543 1543 1543 1543 1543 1542 1542 1541 1539 1538 1536 1535 1534 1533 1532 1531
1497 1497 1494 1492 1488 1491 1494 1491 1484 1485 1490 1491 1491 1491 1492 1496 1500 1503 1506 1508 1511 1514 1517 1520 1523 1526 1529 1532 1536 1538 1539 1540 1540 1540 1540 1540 1540 1539 1538 1537 1536 1535 1535 1534 1531 1529 1529 1529 1527
1494 1489 1491 1492 1493 1488 1485 1491 1476 1473 1482 1485 1485 1486 1487 1491 1495 1499 1502 1504 1506 1509 1513 1516 1520 1523 1526 1528 1531 1534 1536 1537 1538 1538 1537 1537 1536 1535 1534 1533 1532 1531 1532 1530 1529 1528 1526 1525 1524
1486 1483 1487 1488 1489 1489 1484 1491 1479 1469 1477 1475 1476 1478 1482 1486 1491 1495 1498 1499 1502 1506 1510 1514 1517 1521 1523 1526 1529 1531 1533 1534 1535 1535 1534 1534 1533 1532 1531 1530 1529 1528 1528 1526 1525 1523 1522 1522 1521
1482 1486 1487 1486 1485 1492 1482 1484 1477 1464 1468 1466 1465 1472 1478 1483 1488 1492 1494 1496 1499 1503 1507 1511 1515 1518 1521 1524 1527 1529 1530 1531 1531 1532 1532 1532 1532 1530 1529 1528 1526 1526 1525 1524 1522 1521 1520 1518 1516
1482 1489 1493 1490 1486 1481 1466 1474 1470 1457 1458 1460 1462 1468 1475 1481 1484 1487 1490 1493 1496 1500 1504 1509 1513 1516 1519 1522 1524 1526 1527 1527 1528 1529 1529 1529 1530 1529 1527 1526 1524 1524 1522 1521 1520 1519 1517 1515 1513
1477 1481 1490 1491 1482 1469 1463 1472 1461 1456 1460 1462 1464 1467 1472 1477 1481 1483 1487 1490 1494 1498 1503 1507 1510 1514 1517 1520 1522 1523 1524 1525 1526 1525 1526 1526 1527 1527 1524 1523 1523 1522 1520 1519 1518 1516 1515 1512 1510
1471 1471 1469 1476 1477 1481 1470 1460 1454 1456 1457 1459 1461 1464 1469 1474 1478 1481 1485 1489 1492 1496 1501 1505 1509 1512 1516 1518 1519 1520 1521 1522 1522 1522 1523 1525 1524 1524 1523 1522 1521 1520 1518 1516 1514 1513 1511 1509 1506
1462 1461 1467 1475 1486 1486 1472 1464 1456 1450 1449 1451 1456 1461 1466 1471 1475 1479 1483 1487 1491 1495 1499 1504 1508 1511 1513 1515 1517 1518 1519 1520 1520 1521 1522 1522 1522 1521 1520 1520 1518 1517 1515 1513 1511 1510 1508 1505 1502
1462 1464 1465 1464 1464 1473 1474 1462 1442 1445 1448 1450 1451 1456 1462 1468 1473 1477 1481 1485 1489 1493 1498 1502 1506 1509 1511 1514 1515 1516 1517 1518 1519 1520 1521 1520 1520 1519 1518 1517 1516 1514 1512 1510 1508 1505 1503 1500 1497
1453 1455 1458 1467 1466 1462 1465 1459 1442 1446 1450 1451 1452 1455 1460 1466 1471 1476 1480 1483 1487 1492 1496 1501 1505 1507 1510 1512 1513 1514 1515 1516 1517 1519 1519 1518 1517 1517 1516 1515 1513 1511 1508 1506 1503 1501 1498 1495 1491